Regional Weather Roundup
Issued by NWS Nashville, TN

Home | Current Version | Previous Version | Text Only | Print | Product List | Glossary On
Versions: 1 2 3 4 5 6 7 8 9 10 11 12 13 14 15 16 17 18 19 20 21 22 23 24 25 26 27 28 29 30 31 32 33 34 35 36 37 38 39 40 41 42 43 44 45 46 47 48 49 50
000
ASUS44 KOHX 100510
RWROHX
MIDDLE TENNESSEE HOURLY WEATHER ROUNDUP
NATIONAL WEATHER SERVICE NASHVILLE TN
1100 PM CST TUE FEB 09 2016

NOTE: "FAIR" INDICATES FEW OR NO CLOUDS BELOW 12,000 FEET WITH
NO SIGNIFICANT WEATHER AND/OR OBSTRUCTIONS TO VISIBILITY.

* THESE REPORTS ARE NOT UNDER NWS QUALITY CONTROL AND MAY NOT
  REPORT WEATHER SUCH AS PRECIPITATION AND FOG.


TNZ005>011-023>034-057-059-062>066-078-080-100600
...NORTHERN MIDDLE TENNESSEE...

CITY           SKY/WX    TMP DP  RH WIND       PRES   REMARKS
CLARKSVILLE    LGT SNOW  20  17  88 CALM      30.10S FOG
CROSSVILLE     LGT SNOW  18  10  71 W13G18    29.96R WCI   5
DICKSON        CLOUDY    19  16  86 W5        30.07S WCI  13
LEBANON        CLOUDY    20  11  68 NW7       30.07S WCI  11
LIVINGSTON     CLOUDY    18  10  70 NW6       30.00  WCI  10
NASHVILLE      CLOUDY    22  12  65 NW8       30.10F WCI  12
PORTLAND       CLOUDY   N/A N/A N/A NW9       30.05
SMYRNA         CLOUDY    21  12  68 NW9       30.12F WCI  11
SPARTA         CLOUDY    19  14  79 W5        30.03R WCI  13
$$
TNZ056-058-060-061-075>077-079-093>097-100600
...SOUTHERN MIDDLE TENNESSEE...

CITY           SKY/WX    TMP DP  RH WIND       PRES   REMARKS
COLUMBIA       CLOUDY    23  19  86 CALM      30.09S
LEWISBURG      CLOUDY    22  13  68 W6        30.10S WCI  15
MCMINNVILLE    MOCLDY    19  14  79 W8        30.05F WCI   9
SHELBYVILLE    CLOUDY    21  18  86 CALM      30.09F
TULLAHOMA      MOCLDY    19  18  93 NW7       30.07S WCI  10
WINCHESTER     CLOUDY    21  16  79 NW12      30.07S WCI   9
$$


...KEY TO REMARKS...
VSB - VISIBILITY IN MILES
WCI - WIND CHILL INDEX
HX  - HEAT INDEX




USA.gov is the U.S. government's official web portal to all federal, state and local government web resources and services.